Flag for Poland Weather past 2 weeks in Lidzbark Warmiński, Poland

Now
61 °F

Passing clouds.


Feels Like: 61 °F
Forecast: 38 / 63 °F
Wind: 5 mph from South

Location: Ketrzyn

Current Time: Oct 2, 2014 at 3:06:34 PM

Latest Report: Oct 2, 2014 at 2:00 PM


Visibility: 19 mi

Pressure: 30.45 "Hg

Humidity: 47%

Dew point: 41 °F

Location of Lidzbark WarmińskiLocation

Historic Weather in Lidzbark Warmiński — Graph

°F

Lidzbark Warmiński temperature yesterday

Maximum temperature yesterday: 59 °F (at 3:00 PM)
Minimum temperature yesterday: 44 °F (at 2:00 AM)
Average temperature yesterday: 50 °F

Past Weeks' High & Low Weather Summary

 TemperatureHumidityPressure
High72 °F (Sep 18, 3:00 PM)97% (Sep 30, 6:00 AM)30.47 "Hg (Sep 30, 6:00 AM)
Low39 °F (Sep 24, 5:00 AM)38% (Sep 18, 2:00 PM)29.58 "Hg (Sep 22, 5:00 AM)
Average55 °F74%30.06 "Hg
* Reported Sep 17 1:00 PM — Oct 2 1:00 PM, Lidzbark Warmiński, Weather by CustomWeather, © 2014

Note: Actual official high and low records may vary slightly from our data, if they occured in-between our weather recording intervals... More about our weather records

Advertising

Lidzbark Warmiński weather history for previous 24 hours

 ConditionsComfort  
Time TempWeatherWind HumidityBarometerVisibility
1:00 PM
Oct 2
61 °FPassing clouds.5 mph48%30.45 "Hg25 mi
12:00 PM58 °FScattered clouds.6 mph54%30.46 "Hg19 mi
11:00 AM54 °FScattered clouds.5 mph62%30.47 "Hg19 mi
10:00 AM50 °FPartly sunny.5 mph69%30.47 "Hg17 mi
9:00 AM48 °FPartly sunny.5 mph73%30.47 "Hg17 mi
8:00 AM46 °FPartly sunny.3 mph76%30.46 "Hg17 mi
7:00 AM45 °FPartly sunny.3 mph78%30.45 "Hg18 mi
6:00 AM45 °FPassing clouds.2 mph79%30.44 "Hg16 mi
5:00 AM46 °FPassing clouds.3 mph75%30.44 "Hg19 mi
4:00 AM46 °FPassing clouds.2 mph74%30.45 "Hg19 mi
3:00 AM47 °FPassing clouds.3 mph71%30.45 "Hg22 mi
2:00 AM48 °FPassing clouds.5 mph70%30.44 "Hg22 mi
1:00 AM48 °FPassing clouds.5 mph69%30.44 "Hg22 mi
12:00 AM49 °FOvercast.5 mph69%30.43 "Hg15 mi
11:00 PM
Oct 1
49 °FOvercast.3 mph73%30.43 "Hg11 mi
10:00 PM49 °FOvercast.3 mph71%30.43 "Hg12 mi
9:00 PM50 °FPassing clouds.3 mph72%30.42 "Hg12 mi
8:00 PM51 °FPassing clouds.2 mph71%30.42 "Hg12 mi
7:00 PM52 °FPassing clouds.2 mph66%30.41 "Hg12 mi
6:00 PM54 °FPartly sunny.3 mph58%30.40 "Hg19 mi
5:00 PM56 °FPartly sunny.3 mph54%30.40 "Hg19 mi
4:00 PM56 °FPartly sunny.5 mph53%30.40 "Hg22 mi
3:00 PM59 °FPartly sunny.5 mph51%30.40 "Hg19 mi
Weather by CustomWeather, © 2014

See weather overviewHow to use our weather pages